User: anonymous   Login
Location: Danville Conservation Area
(38.8674°N, 91.5143°W)
Time: 00:59:48
(UTC-06:00)
Language:

X-37B - Orbit

View from above orbital plane
View from above orbital plane
View from above satellite
View from above satellite

Ground track
Ground track

The orbit data is extracted from the following two-line orbital elements,

1 45606U 20029A   22027.72475618 0.00000000  00000-0  00000-0 0    00
2 45606  45.0140 353.1666 0006086  59.3804 300.6192 15.78182597    00
Epoch (UTC): 27 January 2022 17:23:38
Eccentricity: 0.0006086
inclination: 45.0140°
perigee height: 331 km
apogee height: 339 km
right ascension of ascending node: 353.1666°
argument of perigee: 59.3804°
revolutions per day: 15.78182597
mean anomaly at epoch: 300.6192°
orbit number at epoch: 0

The dashed part of the orbit path shows where the satellite is in the earth's shadow,  

DLR